Home   Weather   Howard   Past weeks
Flag for USA

Past Weather in Howard, USA — Yesterday and Last 2 Weeks

Now
52 °F

Drizzle. Mostly cloudy.


Feels Like: 50 °F
Forecast: 56 / 50 °F
Wind: 6 mph from North

Location: Knox County Airport
Current Time: Oct 20, 2020 at 1:56:04 am
Latest Report: Oct 20, 2020 at 1:15 am
Visibility: 7 mi
Pressure30.11 "Hg
Humidity: 94%
Dew Point: 50 °F
Location of HowardLocation

Past Weather in Howard — Graph

°F

Howard Temperature Yesterday

Maximum temperature yesterday: 55 °F (at 5:35 pm)
Minimum temperature yesterday: 48 °F (at 3:35 am)
Average temperature yesterday: 52 °F

High & Low Weather Summary for the Past Weeks

 TemperatureHumidityPressure
High75 °F (Oct 7, 3:35 pm)100% (Oct 5, 12:15 am)30.35 "Hg (Oct 5, 12:15 am)
Low34 °F (Oct 16, 11:55 pm)31% (Oct 17, 1:35 pm)29.78 "Hg (Oct 12, 5:15 pm)
Average55 °F73%30.07 "Hg
* Reported Oct 5 12:15 am — Oct 20 12:35 am, Howard. Weather by CustomWeather, © 2020

Note: Actual official high and low records may vary slightly from our data, if they occured in-between our weather recording intervals... More about our weather records

Howard Weather History for the Previous 24 Hours

Scroll right to see more
 ConditionsComfort  
Time TempWeatherWind HumidityBarometerVisibility
12:35 am
Tue, Oct 20
52 °FDrizzle. Low clouds.5 mph100%30.12 "Hg3 mi
12:15 am54 °FLight rain. Low clouds.No wind94%30.12 "Hg2 mi
11:55 pm
Mon, Oct 19
54 °FDrizzle. Low clouds.5 mph94%30.12 "Hg3 mi
11:35 pm54 °FDrizzle. Low clouds.3 mph100%30.13 "Hg1 mi
11:15 pm55 °FFog.No wind100%30.12 "Hg1 mi
10:55 pm55 °FFog.No wind100%30.12 "Hg1 mi
10:35 pm55 °FFog.No wind100%30.13 "Hg2 mi
10:15 pm55 °FFog.No wind100%30.14 "Hg2 mi
9:55 pm55 °FDrizzle. Low clouds.No wind100%30.13 "Hg1 mi
9:35 pm55 °FDrizzle. Low clouds.No wind100%30.12 "Hg1 mi
9:15 pm55 °FDrizzle. Low clouds.No wind100%30.13 "Hg1 mi
8:55 pm55 °FFog.3 mph100%30.12 "Hg1 mi
8:15 pm55 °FFog.No wind100%30.12 "Hg1 mi
7:55 pm55 °FFog.3 mph94%30.12 "Hg2 mi
7:35 pm55 °FFog.5 mph94%30.12 "Hg2 mi
7:15 pm55 °FFog.3 mph94%30.13 "Hg2 mi
6:55 pm55 °FFog.3 mph94%30.12 "Hg3 mi
6:35 pm55 °FFog.No wind94%30.13 "Hg4 mi
6:15 pm55 °FFog.5 mph94%30.13 "Hg2 mi
5:55 pm55 °FDrizzle. Low clouds.3 mph94%30.12 "Hg1 mi
5:35 pm55 °FDrizzle. Low clouds.3 mph94%30.13 "Hg1 mi
5:15 pm54 °FFog.3 mph100%30.13 "Hg1 mi
4:55 pm54 °FDrizzle. Low clouds.3 mph100%30.13 "Hg1 mi
4:35 pm54 °FDrizzle. Low clouds.No wind100%30.13 "Hg1 mi
4:15 pm54 °FDrizzle. Low clouds.No wind100%30.13 "Hg1 mi
3:35 pm54 °FDrizzle. Low clouds.No wind100%30.12 "Hg1 mi
3:15 pm54 °FDrizzle. Low clouds.No wind100%30.13 "Hg1 mi
2:35 pm52 °FDrizzle. Low clouds.No wind100%30.15 "Hg2 mi
2:15 pm52 °FDrizzle. Low clouds.No wind100%30.16 "Hg2 mi
1:55 pm52 °FDrizzle. Low clouds.3 mph100%30.16 "Hg2 mi
1:35 pm52 °FDrizzle. Low clouds.5 mph100%30.17 "Hg2 mi
1:15 pm52 °FDrizzle. More clouds than sun.3 mph100%30.17 "Hg2 mi
12:55 pm52 °FRain. More clouds than sun.3 mph100%30.17 "Hg7 mi
12:35 pm52 °FDrizzle. Mostly cloudy.3 mph94%30.18 "Hg7 mi
12:15 pm52 °FLight rain. Low clouds.3 mph100%30.18 "Hg7 mi
11:55 am52 °FLight rain. Low clouds.3 mph100%30.18 "Hg7 mi
11:35 am52 °FRain. Low clouds.3 mph94%30.19 "Hg5 mi
11:15 am52 °FLight rain. Low clouds.3 mph94%30.19 "Hg7 mi
10:55 am52 °FDrizzle. Low clouds.5 mph94%30.18 "Hg5 mi
10:35 am50 °FLight rain. Low clouds.5 mph100%30.18 "Hg4 mi
10:15 am50 °FRain. Low clouds.5 mph100%30.19 "Hg3 mi
9:35 am50 °FRain. Low clouds.5 mph100%30.20 "Hg1 mi
9:15 am50 °FLight rain. Low clouds.3 mph100%30.20 "Hg2 mi
8:55 am50 °FRain. Low clouds.5 mph100%30.20 "Hg2 mi
8:35 am50 °FRain. Mostly cloudy.6 mph94%30.20 "Hg3 mi
7:55 am50 °FRain. Low clouds.5 mph94%30.20 "Hg1 mi
7:35 am48 °FRain. Low clouds.3 mph100%30.21 "Hg1 mi
6:55 am48 °FLight rain. Low clouds.3 mph100%30.22 "Hg2 mi
4:15 am50 °FLight rain. Passing clouds.5 mph94%30.19 "Hg10 mi
3:35 am48 °FLight rain. Passing clouds.3 mph100%30.18 "Hg10 mi
3:15 am50 °FLight rain. Passing clouds.No wind88%30.20 "Hg10 mi
2:55 am50 °FLight rain. Passing clouds.No wind88%30.21 "Hg10 mi
2:35 am50 °FLight rain. Clear.No wind88%30.21 "Hg10 mi
1:55 am50 °FLight rain. Clear.No wind88%30.21 "Hg10 mi
1:35 am50 °FPassing clouds.3 mph82%30.22 "Hg10 mi
1:15 am50 °FPassing clouds.3 mph82%30.23 "Hg10 mi
Weather by CustomWeather, © 2020

See weather overview